Regional Weather Roundup
Issued by NWS State College, PA

Home | Current Version | Previous Version | Text Only | Print | Product List | Glossary Off
Versions: 1 2 3 4 5 6 7 8 9 10 11 12 13 14 15 16 17 18 19 20 21 22 23 24 25 26 27 28 29 30 31 32 33 34 35 36 37 38 39 40 41 42 43 44 45 46 47 48 49 50

000
ASUS41 KCTP 092303
RWRCTP

REGIONAL WEATHER ROUNDUP
NATIONAL WEATHER SERVICE STATE COLLEGE PA
700 PM EDT WED JUL 09 2014

Note: "fair" indicates few or no clouds below 12,000 feet with no
significant weather and/or obstructions to visibility.

* = STATION THAT DOES NOT REPORT PRECIPITATION /E.G. RAIN...SNOW...ETC/
    THUNDER OR FOG.

PAZ002>004-007>009-013>016-020>023-029>032-100000-
WESTERN PENNSYLVANIA

CITY           SKY/WX    TMP DP  RH WIND       PRES   REMARKS
ERIE           MOSUNNY   71  54  54 VRB5      29.95S
MEADVILLE      PTSUNNY   70  58  65 NW7       29.96R
FRANKLIN*      MOSUNNY   72  59  64 N5        29.97R
NEW CASTLE     NOT AVBL
BEAVER COUNTY  MOSUNNY   77  52  41 W6        29.94R
BUTLER*        SUNNY     79  55  44 W7        29.95R
PITTSBURGH INT MOSUNNY   79  56  45 W8        29.93R
PITTSBURGH     SUNNY     81  56  42 W3        29.93R
INDIANA*       SUNNY     79  55  44 NW7G13    29.97S
LATROBE        PTSUNNY   79  61  53 NW12      29.94R
WASHINGTON CO* SUNNY     79  55  44 SW5       29.94S
$$

PAZ004>006-010>012-017>019-024>028-033>037-041-042-045-046-049>053-100000-
CENTRAL PENNSYLVANIA

CITY           SKY/WX    TMP DP  RH WIND       PRES   REMARKS
BRADFORD       MOSUNNY   69  55  60 W10       29.98R
DUBOIS         MOSUNNY   74  60  61 NW8       29.95R
CLEARFIELD     SUNNY     75  60  59 N6        29.95R
JOHNSTOWN      MOSUNNY   75  55  49 W9        29.97S
ALTOONA        PTSUNNY   77  61  57 W7        29.94R
STATE COLLEGE  MOSUNNY   79  57  47 NW16      29.93R
WILLIAMSPORT   SUNNY     77  61  57 CALM      29.89R
SELINSGROVE    PTSUNNY   79  64  60 N5        29.88R
FT INDIANTOWN  MOSUNNY   83  68  59 S8        29.89R
CAPITAL CITY   MOSUNNY   81  66  60 S10       29.87S
HARRISBURG     PTSUNNY   82  70  66 S9        29.87S
YORK           PTSUNNY   82  67  60 S12       29.89R
$$

PAZ038>040-043-044-047-048-054-055-060>062-067>071-100000-
EASTERN PENNSYLVANIA

CITY           SKY/WX    TMP DP  RH WIND       PRES   REMARKS
SCRANTON       PTSUNNY   74  59  59 N7        29.92R
MOUNT POCONO   MOSUNNY   75  62  64 W8        29.95R
ALLENTOWN      PTSUNNY   78  67  68 SW7       29.89S
QUAKERTOWN*    CLOUDY    81  66  61 SW5       29.91R
READING        CLOUDY    78  71  79 S8        29.89R
LANCASTER      PTSUNNY   80  66  62 S3        29.89S
COATESVILLE    CLOUDY    77  68  73 SW3       29.92R
POTTSTOWN      CLOUDY    82  66  58 SW6       29.91R
BLUE BELL      CLOUDY    84  68  58 SW7       29.89R
DOYLESTOWN     CLOUDY    82  65  56 SW8       29.89R
WILLOW GROVE   NOT AVBL
NORTH PHILA    CLOUDY    86  62  44 SW13G20   29.89R
PHILADELPHIA   CLOUDY    85  65  51 SW13      29.89R
$$



USA.gov is the U.S. government's official web portal to all federal, state and local government web resources and services.